When you browse on this site, cookies collect data to enhance your experience and personalize the content and advertising you see.
Visit our Privacy Policy to learn more. By continuing to use the site, you agree to this use of cookies and data.
  • In Austria
  • List of Countries
  • For 7 days
  • Water Temperature
  • Weather Map
  • News
  • Weather Widgets
  • user-avatar
    Login

    Hourly Weather Jacala

    Today, 19 August, Monday

    Time Temperature Precipitation Wind Pressure Humidity
    00:00 +17°C° 0.1 mm 0 mps 632 mmHg 96%
    01:00 +16°C° 0.1 mm 0 mps 631 mmHg 96%
    02:00 +16°C° 0.1 mm 0 mps 631 mmHg 96%
    03:00 +16°C° 0.1 mm 0 mps 631 mmHg 96%
    04:00 +16°C° 0.1 mm 0 mps 632 mmHg 96%
    05:00 +16°C° 0.1 mm 0 mps 632 mmHg 96%
    06:00 +18°C° 0.1 mm 0 mps 632 mmHg 89%
    07:00 +21°C° 0.1 mm 1 mps 633 mmHg 83%
    08:00 +23°C° 0.1 mm 1 mps 634 mmHg 77%
    09:00 +24°C° 0.1 mm 1 mps 634 mmHg 70%
    10:00 +26°C° 0.1 mm 2 mps 634 mmHg 63%
    11:00 +27°C° 0.1 mm 2 mps 635 mmHg 55%
    12:00 +26°C° 0.7 mm 2 mps 634 mmHg 60%
    13:00 +26°C° 0.7 mm 3 mps 633 mmHg 64%
    14:00 +25°C° 0.7 mm 3 mps 632 mmHg 68%
    15:00 +24°C° 0.7 mm 3 mps 632 mmHg 73%
    16:00 +23°C° 0.7 mm 2 mps 632 mmHg 78%
    17:00 +21°C° 0.7 mm 2 mps 632 mmHg 83%
    18:00 +21°C° 0.2 mm 1 mps 632 mmHg 87%
    19:00 +19°C° 0.2 mm 1 mps 632 mmHg 91%
    20:00 +18°C° 0.2 mm 1 mps 632 mmHg 95%
    21:00 +18°C° 0.1 mm 1 mps 632 mmHg 95%
    22:00 +18°C° 0.1 mm 1 mps 632 mmHg 95%
    23:00 +18°C° 0.1 mm 1 mps 633 mmHg 95%

    Tomorrow, 20 August, Tuesday

    Time Temperature Precipitation Wind Pressure Humidity
    00:00 +16°C° 0 mm 1 mps 632 mmHg 95%
    01:00 +16°C° 0 mm 1 mps 632 mmHg 95%
    02:00 +15°C° 0 mm 0 mps 632 mmHg 95%
    03:00 +14°C° 0 mm 0 mps 632 mmHg 95%
    04:00 +14°C° 0 mm 0 mps 632 mmHg 95%
    05:00 +14°C° 0 mm 0 mps 632 mmHg 95%
    06:00 +16°C° 0 mm 0 mps 633 mmHg 88%
    07:00 +19°C° 0 mm 1 mps 633 mmHg 82%
    08:00 +21°C° 0 mm 1 mps 634 mmHg 75%
    09:00 +23°C° 0 mm 1 mps 634 mmHg 67%
    10:00 +24°C° 0 mm 2 mps 635 mmHg 59%
    11:00 +26°C° 0 mm 2 mps 635 mmHg 51%
    12:00 +26°C° 0.1 mm 2 mps 634 mmHg 54%
    13:00 +25°C° 0.1 mm 3 mps 634 mmHg 58%
    14:00 +25°C° 0.1 mm 3 mps 633 mmHg 61%
    15:00 +24°C° 0.3 mm 3 mps 633 mmHg 67%
    16:00 +23°C° 0.3 mm 2 mps 632 mmHg 73%
    17:00 +20°C° 0.3 mm 2 mps 632 mmHg 80%
    18:00 +19°C° 0.2 mm 2 mps 633 mmHg 84%
    19:00 +19°C° 0.2 mm 1 mps 633 mmHg 89%
    20:00 +18°C° 0.2 mm 1 mps 633 mmHg 94%
    21:00 +16°C° 0.2 mm 0 mps 633 mmHg 94%
    22:00 +16°C° 0.2 mm 0 mps 633 mmHg 94%
    23:00 +15°C° 0.2 mm 0 mps 633 mmHg 95%

    Day after tomorrow, 21 August, Wednesday

    Time Temperature Precipitation Wind Pressure Humidity
    00:00 +15°C° 0.1 mm 0 mps 633 mmHg 95%
    01:00 +15°C° 0.1 mm 0 mps 632 mmHg 95%
    02:00 +15°C° 0.1 mm 0 mps 632 mmHg 95%
    03:00 +15°C° 0 mm 0 mps 632 mmHg 95%
    04:00 +14°C° 0 mm 0 mps 632 mmHg 95%
    05:00 +14°C° 0 mm 0 mps 632 mmHg 94%
    06:00 +16°C° 0 mm 0 mps 633 mmHg 88%
    07:00 +18°C° 0 mm 0 mps 634 mmHg 82%
    08:00 +20°C° 0 mm 0 mps 635 mmHg 76%
    09:00 +23°C° 0 mm 1 mps 635 mmHg 69%
    10:00 +25°C° 0 mm 1 mps 635 mmHg 62%
    11:00 +26°C° 0 mm 2 mps 635 mmHg 55%
    12:00 +25°C° 1 mm 2 mps 634 mmHg 61%
    13:00 +24°C° 1 mm 2 mps 633 mmHg 68%
    14:00 +24°C° 1 mm 3 mps 632 mmHg 75%
    15:00 +23°C° 1.2 mm 2 mps 632 mmHg 79%
    16:00 +21°C° 1.2 mm 2 mps 632 mmHg 83%
    17:00 +21°C° 1.2 mm 1 mps 632 mmHg 87%
    18:00 +20°C° 0.6 mm 1 mps 632 mmHg 89%
    19:00 +19°C° 0.6 mm 1 mps 632 mmHg 92%
    20:00 +16°C° 0.6 mm 0 mps 632 mmHg 95%
    21:00 +18°C° 0.3 mm 1 mps 632 mmHg 95%
    22:00 +18°C° 0.3 mm 1 mps 632 mmHg 94%
    23:00 +18°C° 0.3 mm 1 mps 632 mmHg 94%

    22 August, Thursday

    Time Temperature Precipitation Wind Pressure Humidity
    00:00 +16°C° 0 mm 1 mps 632 mmHg 94%
    01:00 +16°C° 0 mm 1 mps 631 mmHg 94%
    02:00 +16°C° 0 mm 1 mps 630 mmHg 93%
    03:00 +16°C° 0 mm 1 mps 631 mmHg 93%
    04:00 +15°C° 0 mm 0 mps 631 mmHg 93%
    05:00 +14°C° 0 mm 0 mps 631 mmHg 93%
    06:00 +17°C° 0 mm 0 mps 632 mmHg 86%
    07:00 +19°C° 0 mm 0 mps 633 mmHg 79%
    08:00 +21°C° 0 mm 0 mps 634 mmHg 73%
    09:00 +23°C° 0.1 mm 0 mps 634 mmHg 66%
    10:00 +26°C° 0.1 mm 1 mps 634 mmHg 59%
    11:00 +28°C° 0.1 mm 1 mps 634 mmHg 52%
    12:00 +27°C° 0.9 mm 2 mps 633 mmHg 57%
    13:00 +27°C° 0.9 mm 2 mps 633 mmHg 61%
    14:00 +26°C° 0.9 mm 2 mps 632 mmHg 66%
    15:00 +25°C° 1.2 mm 2 mps 631 mmHg 72%
    16:00 +24°C° 1.2 mm 2 mps 631 mmHg 79%
    17:00 +21°C° 1.2 mm 2 mps 631 mmHg 85%
    18:00 +21°C° 0.3 mm 1 mps 631 mmHg 88%
    19:00 +20°C° 0.3 mm 1 mps 631 mmHg 91%
    20:00 +19°C° 0.3 mm 1 mps 632 mmHg 93%
    21:00 +19°C° 0.1 mm 1 mps 632 mmHg 93%
    22:00 +19°C° 0.1 mm 1 mps 632 mmHg 93%
    23:00 +16°C° 0.1 mm 0 mps 632 mmHg 92%

    23 August, Friday

    Time Temperature Precipitation Wind Pressure Humidity
    00:00 +16°C° 0 mm 0 mps 631 mmHg 92%
    01:00 +16°C° 0 mm 0 mps 631 mmHg 91%
    02:00 +16°C° 0 mm 0 mps 631 mmHg 90%
    03:00 +18°C° 0.1 mm 1 mps 631 mmHg 90%
    04:00 +18°C° 0.1 mm 1 mps 631 mmHg 91%
    05:00 +16°C° 0.1 mm 1 mps 631 mmHg 91%
    06:00 +19°C° 0 mm 1 mps 632 mmHg 85%
    07:00 +21°C° 0 mm 1 mps 633 mmHg 79%
    08:00 +23°C° 0 mm 1 mps 634 mmHg 73%
    09:00 +25°C° 0.1 mm 1 mps 634 mmHg 65%
    10:00 +27°C° 0.1 mm 1 mps 635 mmHg 57%
    11:00 +29°C° 0.1 mm 1 mps 635 mmHg 49%
    12:00 +28°C° 2 mm 1 mps 634 mmHg 57%
    13:00 +27°C° 2 mm 2 mps 633 mmHg 64%
    14:00 +25°C° 2 mm 2 mps 632 mmHg 72%
    15:00 +24°C° 2.9 mm 2 mps 632 mmHg 79%
    16:00 +21°C° 2.9 mm 2 mps 631 mmHg 85%
    17:00 +20°C° 2.9 mm 2 mps 631 mmHg 92%
    18:00 +19°C° 1.1 mm 2 mps 631 mmHg 92%
    19:00 +19°C° 1.1 mm 2 mps 632 mmHg 92%
    20:00 +18°C° 1.1 mm 2 mps 632 mmHg 92%
    21:00 +18°C° 0.3 mm 2 mps 633 mmHg 92%
    22:00 +19°C° 0.3 mm 1 mps 633 mmHg 91%
    23:00 +19°C° 0.3 mm 1 mps 633 mmHg 90%

    24 August, Saturday

    Time Temperature Precipitation Wind Pressure Humidity
    00:00 +18°C° 0 mm 1 mps 633 mmHg 89%
    01:00 +18°C° 0 mm 1 mps 632 mmHg 89%
    02:00 +18°C° 0 mm 1 mps 632 mmHg 88%
    03:00 +18°C° 0 mm 1 mps 632 mmHg 87%
    04:00 +18°C° 0 mm 1 mps 632 mmHg 87%
    05:00 +18°C° 0 mm 1 mps 632 mmHg 86%
    06:00 +20°C° 0 mm 1 mps 633 mmHg 81%
    07:00 +19°C° 0 mm 0 mps 634 mmHg 76%
    08:00 +21°C° 0 mm 0 mps 635 mmHg 70%
    09:00 +22°C° 0.1 mm 0 mps 635 mmHg 64%
    10:00 +26°C° 0.1 mm 1 mps 635 mmHg 57%
    11:00 +27°C° 0.1 mm 1 mps 636 mmHg 51%
    12:00 +28°C° 0 mm 1 mps 635 mmHg 49%
    13:00 +28°C° 0 mm 1 mps 635 mmHg 48%
    14:00 +29°C° 0 mm 1 mps 634 mmHg 46%
    15:00 +27°C° 0.3 mm 1 mps 634 mmHg 55%
    16:00 +26°C° 0.3 mm 1 mps 633 mmHg 64%
    17:00 +25°C° 0.3 mm 1 mps 633 mmHg 72%
    18:00 +23°C° 0.4 mm 1 mps 633 mmHg 77%
    19:00 +22°C° 0.4 mm 1 mps 632 mmHg 83%
    20:00 +18°C° 0.4 mm 0 mps 632 mmHg 88%
    21:00 +18°C° 0.4 mm 0 mps 632 mmHg 88%
    22:00 +17°C° 0.4 mm 0 mps 632 mmHg 88%
    23:00 +17°C° 0.4 mm 0 mps 632 mmHg 88%
    Show more